Home > Time Zones > World Clock > Weather > U.S.A. > Gary > Past weeks

Flag for U.S.A. Weather past 2 weeks in Gary, Indiana, U.S.A.

Now
41 °F

Light rain. Overcast.


Feels Like: 34 °F
Forecast: 39 / 46 °F
Wind: 13 mph from Southeast

Location: Lansing Municipal Airport

Current Time: Dec 22, 2014 at 9:22:58 PM

Latest Report: Dec 22, 2014 at 8:55 PM


Visibility: 5 mi

Pressure: 29.65 "Hg

Humidity: 93%

Dew point: 39 °F

Location of GaryLocation

Historic Weather in Gary — Graph

°F

Gary temperature yesterday

Maximum temperature yesterday: 36 °F (at 1:55 PM)
Minimum temperature yesterday: 31 °F (at 11:55 PM)
Average temperature yesterday: 33 °F

Past Weeks' High & Low Weather Summary

 TemperatureHumidityPressure
High52 °F (Dec 14, 12:15 PM)100% (Dec 15, 3:55 AM)30.38 "Hg (Dec 15, 3:55 AM)
Low23 °F (Dec 12, 3:55 AM)68% (Dec 17, 4:15 PM)29.65 "Hg (Dec 16, 12:55 AM)
Average34 °F86%30.16 "Hg
* Reported Dec 7 8:15 PM — Dec 22 8:15 PM, Gary, Weather by CustomWeather, © 2014

Note: Actual official high and low records may vary slightly from our data, if they occured in-between our weather recording intervals... More about our weather records

Advertising

Gary weather history for previous 24 hours

 ConditionsComfort  
Time TempWeatherWind HumidityBarometerVisibility
8:15 PM
Dec 22
41 °FLight rain. Overcast.15 mph95%29.66 "Hg5 mi
7:55 PM40 °FDrizzle. Mostly cloudy.18 mph94%29.66 "Hg5 mi
7:35 PM40 °FRain. Low clouds.14 mph95%29.67 "Hg5 mi
7:15 PM40 °FDrizzle. Low clouds.13 mph95%29.68 "Hg5 mi
6:55 PM40 °FLight rain. Low clouds.12 mph95%29.68 "Hg4 mi
6:35 PM40 °FLight rain. Low clouds.14 mph95%29.68 "Hg3 mi
6:15 PM40 °FRain. Low clouds.10 mph95%29.68 "Hg4 mi
5:55 PM40 °FLight rain. Low clouds.15 mph96%29.69 "Hg4 mi
5:15 PM40 °FRain. Low clouds.12 mph96%29.70 "Hg4 mi
4:55 PM40 °FLight rain. Low clouds.13 mph96%29.70 "Hg4 mi
4:15 PM39 °FLight rain. Low clouds.9 mph97%29.71 "Hg4 mi
3:55 PM38 °FLight rain. Low clouds.10 mph97%29.71 "Hg2 mi
3:15 PM38 °FRain. Low clouds.12 mph95%29.72 "Hg2 mi
2:55 PM38 °FRain. Low clouds.12 mph95%29.73 "Hg2 mi
2:15 PM38 °FLight rain. Low clouds.9 mph94%29.74 "Hg3 mi
1:55 PM38 °FLight rain. Overcast.9 mph93%29.74 "Hg3 mi
1:15 PM37 °FRain. More clouds than sun.9 mph91%29.76 "Hg4 mi
12:55 PM37 °FLight rain. Overcast.8 mph90%29.77 "Hg4 mi
12:15 PM36 °FLight rain. More clouds than sun.12 mph88%29.80 "Hg5 mi
11:55 AM36 °FLight rain. Cloudy.8 mph88%29.82 "Hg5 mi
11:35 AM35 °FLight rain. Cloudy.8 mph88%29.83 "Hg5 mi
11:15 AM35 °FRain. Mostly cloudy.7 mph88%29.85 "Hg4 mi
10:55 AM34 °FLight rain. Overcast.10 mph88%29.87 "Hg4 mi
10:15 AM34 °FDrizzle. Mostly cloudy.8 mph82%29.90 "Hg5 mi
9:55 AM33 °FLight rain. More clouds than sun.8 mph83%29.90 "Hg7 mi
9:15 AM33 °FOvercast.9 mph84%29.91 "Hg7 mi
8:55 AM32 °FOvercast.9 mph85%29.91 "Hg7 mi
8:35 AM32 °FMostly cloudy.8 mph84%29.92 "Hg7 mi
8:15 AM32 °FIce fog.10 mph84%29.91 "Hg5 mi
7:55 AM32 °FOvercast.7 mph84%29.93 "Hg5 mi
7:15 AM32 °FOvercast.7 mph85%29.95 "Hg7 mi
6:55 AM32 °FMostly cloudy.9 mph85%29.95 "Hg7 mi
6:35 AM31 °FMore clouds than sun.7 mph84%29.95 "Hg7 mi
6:15 AM31 °FMostly cloudy.9 mph84%29.95 "Hg7 mi
5:55 AM31 °FOvercast.8 mph84%29.95 "Hg7 mi
5:35 AM31 °FOvercast.9 mph84%29.97 "Hg7 mi
5:15 AM31 °FOvercast.7 mph86%29.97 "Hg7 mi
4:55 AM31 °FMostly cloudy.6 mph85%29.97 "Hg7 mi
4:35 AM31 °FIce fog.8 mph86%29.97 "Hg5 mi
4:15 AM30 °FIce fog.8 mph87%29.97 "Hg5 mi
3:55 AM30 °FIce fog.7 mph88%29.97 "Hg5 mi
3:35 AM30 °FIce fog.8 mph87%29.98 "Hg5 mi
3:15 AM30 °FIce fog.6 mph87%29.99 "Hg5 mi
2:55 AM30 °FIce fog.9 mph85%29.99 "Hg5 mi
2:35 AM31 °FIce fog.8 mph85%30.00 "Hg5 mi
2:15 AM31 °FIce fog.8 mph84%30.01 "Hg5 mi
1:55 AM31 °FIce fog.9 mph85%30.01 "Hg5 mi
1:15 AM31 °FIce fog.9 mph85%30.01 "Hg5 mi
12:55 AM31 °FIce fog.9 mph85%30.01 "Hg5 mi
12:15 AM31 °FIce fog.8 mph85%30.03 "Hg5 mi
11:55 PM
Dec 21
31 °FIce fog.9 mph85%30.04 "Hg5 mi
11:15 PM32 °FIce fog.9 mph85%30.04 "Hg5 mi
10:55 PM32 °FPassing clouds.10 mph85%30.05 "Hg5 mi
10:15 PM32 °FIce fog.13 mph85%30.05 "Hg5 mi
9:55 PM32 °FIce fog.9 mph85%30.05 "Hg5 mi
9:35 PM32 °FIce fog.10 mph85%30.06 "Hg5 mi
9:15 PM32 °FClear.10 mph85%30.06 "Hg7 mi
Weather by CustomWeather, © 2014

See weather overviewHow to use our weather pages